Regional Weather Roundup
Issued by NWS Midland/Odessa, TX

Skip options and go directly to product.
Home | Oldest Version | Previous Version | Current Version | All | Text Only | Save Text | Print | Product List | Glossary On

Skip product version selection by date and time.   
190
ASUS44 KMAF 171110
RWRMAF
MIDLAND AREA WEATHER ROUNDUP
NATIONAL WEATHER SERVICE MIDLAND TX
600 AM CDT WED SEP 17 2014

...IN SOUTHWEST TEXAS AND SOUTHEAST NEW MEXICO...

CITY           SKY/WX    TMP DP  RH WIND       PRES   REMARKS
ALPINE         MOCLDY    63  60  90 SW5       30.16F
ANDREWS        FAIR      67  66  97 CALM      30.07S
ARTESIA        NOT AVBL
BIG SPRING     CLOUDY    74  70  87 CALM      30.06R
CARLSBAD       CLOUDY    67  32  27 N5        30.06S
DRYDEN           N/A     75  69  81 N6        29.99S
FORT STOCKTON  PTCLDY    68  64  87 S5        30.04S
GUAD PASS      MOCLDY    63  59  87 NE20      30.17S
HOBBS          NOT AVBL
MARFA          MOCLDY    61  57  88 NE6       30.15F
MIDLAND AIRPK  NOT AVBL
MIDLAND INTL   CLOUDY    70  66  87 E3        30.04F
ODESSA         CLOUDY    69  66  90 NE6       30.05F
PECOS          PTCLDY    68  64  87 NE7       30.02S
PRESIDIO       FAIR      73  63  68 NE9       30.01S
SEMINOLE       CLOUDY    66  65  98 CALM      30.09S FOG
SNYDER         CLOUDY    70  68  95 CALM      30.04S
WINK           CLOUDY    71  66  84 E5        30.02F
$$
...OTHER STATIONS IN TEXAS...

CITY           SKY/WX    TMP DP  RH WIND       PRES   REMARKS
ABILENE        CLOUDY    74  69  85 SE3       30.01S
AMARILLO       MOCLDY    61  60  97 SW7       30.07S
AUSTIN         CLOUDY    76  74  93 CALM      29.95F
BROWNSVILLE    CLEAR     77  76  96 S3        29.92S
CORPUS CHRISTI PTCLDY    77  75  93 S5        29.92S
DALLAS FTW     MOCLDY    75  70  84 S3        29.96S
DEL RIO        CLOUDY    77  73  87 E6        29.94R
EL PASO        CLOUDY    69  63  81 N12       30.05S
HOUSTON INT    CLOUDY    76  75  97 CALM      29.95S
LUBBOCK        CLOUDY    67  65  93 CALM      30.07S
SAN ANGELO     CLOUDY    73  67  81 CALM      30.00S
SAN ANTONIO    LGT RAIN  78  75  90 E6        29.96S
WACO           CLOUDY    74  72  93 S7        29.96F
WICHITA FALLS  NOT AVBL
$$
...OTHER LOCATIONS IN NEW MEXICO...

CITY           SKY/WX    TMP DP  RH WIND       PRES   REMARKS
ALAMAGORDO     CLOUDY    64  64 100 CALM      30.10S
ALBUQUERQUE    CLOUDY    62  55  77 CALM      30.17F
CANNON AFB     MOCLDY    63  59  88 W6        30.13R
CLOVIS           N/A     63  59  88 SW3       30.15R
HOLLOMAN AFB   CLOUDY    64  64 100 NW8       30.09R
ROSWELL        LGT RAIN  66  65  96 N3        30.08F FOG
RUIDOSO        CLOUDY    57  57 100 CALM      30.26S FOG
SANTA FE       CLOUDY    57  51  80 CALM      30.21F
TRUTH OR CONSE LGT RAIN  62  62 100 NE5       30.12S
TUCUMCARI      MOCLDY    64  60  87 SW9       30.08F
$$

USA.gov is the U.S. government's official web portal to all federal, state and local government web resources and services.